Regional Weather Roundup
Issued by NWS

Home | Current Version | Previous Version | Graphics & Text | Print | Product List | Glossary On
Versions: 1 2 3 4 5 6 7 8 9 10 11 12 13 14 15 16 17 18 19 20 21 22 23 24 25 26 27 28 29 30 31 32 33 34 35 36 37 38 39 40 41 42 43 44 45 46 47 48 49 50
000
ASUS43 KIND 280309
RWRIN

WEATHER ROUNDUP FOR INDIANA
NATIONAL WEATHER SERVICE INDIANAPOLIS IN
1100 PM EDT WED AUG 27 2014

NOTE: "FAIR" INDICATES FEW OR NO CLOUDS BELOW 12,000 FEET WITH NO
SIGNIFICANT WEATHER AND/OR OBSTRUCTIONS TO VISIBILITY.

* - STATION DOES NOT REPORT WEATHER SUCH AS PRECIPITATION OR FOG.

+ - STATION NOT QUALITY CONTROLLED BY THE NATIONAL WEATHER SERVICE.
    USE DATA WITH CAUTION...ESPECIALLY DEWPOINT AND RELATIVE
    HUMIDITY OBSERVATIONS.

INZ001>003-010>013-019-020-280400-
NORTHWEST INDIANA

CITY           SKY/WX    TMP DP  RH WIND       PRES   REMARKS
GARY /AIRPORT/ MOCLDY    70  60  70 NE10      30.13S
KNOX *+        MOCLDY    62  58  88 CALM      30.12S
LA PORTE +     PTCLDY    64  59  86 NE7       30.14S
MICHIGAN CITY+ PTCLDY    61  59  94 CALM      30.14R
MONTICELLO +   MOCLDY    67  61  83 NE6       30.10S
RENSSELAER +   MOCLDY    64  63  94 N5        30.11F
VALPARAISO     MOCLDY    63  59  87 NE5       30.13S

$$

LMZ046-743>745-280400-
SOUTHERN LAKE MICHIGAN

STATION/POSITION TIME  TEMP WIND        PRES
                       AIR  DIR/SP/G
                 (UTC) (F)  (DEG/KT/KT) (MB)
MICHIGAN CITY    0300   68   50/  8/ 14   N/A

$$

INZ004-005-014>016-021>024-280400-
NORTH CENTRAL INDIANA

CITY           SKY/WX    TMP DP  RH WIND       PRES   REMARKS
GOSHEN         MOCLDY    66  62  87 N7        30.12S
LOGANSPORT +   PTCLDY    64  59  82 N7        30.11F
PERU/GRISSOM   PTCLDY    69  66  93 N5        30.10F
ROCHESTER +    MOCLDY    68  61  77 CALM      30.12F
SOUTH BEND     PTCLDY    64  59  83 N7        30.14R
WARSAW +       PTCLDY    64  63  94 N3        30.12S

$$

INZ006>009-017-018-025>027-280400-
NORTHEAST INDIANA

CITY           SKY/WX    TMP DP  RH WIND       PRES   REMARKS
ANGOLA *+      CLEAR     64  61  88 CALM      30.13R
AUBURN +       MOCLDY    66  57  72 CALM      30.12S
FORT WAYNE     MOCLDY    69  60  73 NE7       30.11S
HUNTINGTON +   PTCLDY    67  61  80 N3        30.10F

$$

INZ028-029-035-036-043>045-051>053-280400-
WEST CENTRAL INDIANA

CITY           SKY/WX    TMP DP  RH WIND       PRES   REMARKS
GREENCASTLE +  MOCLDY    72  68  88 N3        30.09F
LAFAYETTE      PTCLDY    68  61  78 NE9       30.09S
TERRE HAUTE    PTCLDY    76  70  82 N6        30.08R

$$

INZ030>032-037>040-046>048-054>057-064-065-280400-
CENTRAL INDIANA

CITY           SKY/WX    TMP DP  RH WIND       PRES   REMARKS
CP ATTERBURY + MOCLDY    73  68  83 N7        30.09R
FRANKFORT +    PTCLDY    69  65  88 N5        30.11F
GREENWOOD *+   MOCLDY    73  68  83 NE5       30.10
INDIANAPOLIS   MOCLDY    75  65  70 NE10      30.07F
-EAGLE CREEK   PTCLDY    75  64  68 MISG      30.08S
KOKOMO *+      PTCLDY    68  63  83 N6        30.10F
MARION +       CLEAR     68  61  77 NE7       30.10F
MT COMFORT *+  PTCLDY    70 N/A N/A CALM      30.09F
SHELBYVILLE    PTCLDY    73  68  84 N3        30.08R
ZIONSVILLE +   PTCLDY    69  64  84 CALM      30.10S

$$

INZ033-034-041-042-049-050-058-059-280400-
EAST CENTRAL INDIANA

CITY           SKY/WX    TMP DP  RH WIND       PRES   REMARKS
MUNCIE         CLEAR     68  62  81 N3        30.09F

$$

INZ060-061-067>069-081>083-085>088-280400-
SOUTHWEST INDIANA

CITY           SKY/WX    TMP DP  RH WIND       PRES   REMARKS
EVANSVILLE     MOCLDY    79  69  71 NW3       30.06S
WASHINGTON +   CLOUDY    74  74 100 CALM      30.05S

$$

INZ062-063-066-070>080-084-089>092-280400-
SOUTH CENTRAL AND SOUTHEAST INDIANA

CITY           SKY/WX    TMP DP  RH WIND       PRES   REMARKS
BEDFORD +      CLOUDY    77  68  73 N3        30.07R
BLOOMINGTON    CLOUDY    76  72  87 N7        30.08S
NORTH VERNON + PTCLDY    75  75 100 CALM      30.07
SEYMOUR +      MOCLDY    79  64  61 N5        30.06

$$




USA.gov is the U.S. government's official web portal to all federal, state and local government web resources and services.